Home > Weather > Gorgan > Past weeks

Flag for Iran Past Weather in Gorgan, Iran — Yesterday and Last 2 Weeks

Now
77 °F

Partly cloudy.


Feels Like: 78 °F
Forecast: 74 / 83 °F
Wind: 7 mph from Southwest

Location: Gorgan Airport

Current Time: Jul 29, 2016 at 12:54:01 AM

Latest Report: Jul 28, 2016 at 11:30 PM


Visibility: N/A

Pressure: 29.86 "Hg

Humidity: 83%

Dew Point: 72 °F

Location of GorganLocation

Past Weather in Gorgan — Graph

°F

Gorgan Temperature Yesterday

Maximum temperature yesterday: 93 °F (at 2:30 PM)
Minimum temperature yesterday: 70 °F (at 5:30 AM)
Average temperature yesterday: 81 °F

High & Low Weather Summary for the Past Weeks

 TemperatureHumidityPressure
High108 °F (Jul 19, 4:30 PM)94% (Jul 14, 1:30 AM)30.12 "Hg (Jul 14, 1:30 AM)
Low70 °F (Jul 14, 1:30 AM)23% (Jul 19, 3:30 PM)29.47 "Hg (Jul 19, 4:30 PM)
Average83 °F70%29.80 "Hg
* Reported Jul 13 11:30 PM — Jul 28 11:30 PM, Gorgan, Weather by CustomWeather, © 2016

Note: Actual official high and low records may vary slightly from our data, if they occured in-between our weather recording intervals... More about our weather records

Advertising

Gorgan Weather History for the Previous 24 Hours

Scroll right to see more
 ConditionsComfort  
Time TempWeatherWind HumidityBarometerVisibility
11:30 PM
Thu, Jul 28
77 °FPartly cloudy.7 mph83%29.86 "HgN/A
10:30 PM75 °FPassing clouds.7 mph89%29.86 "HgN/A
10:00 PM77 °FLight rain. Partly cloudy.9 mph83%29.89 "Hg4 mi
9:30 PM77 °FThunderstorms. Broken clouds.7 mph89%29.86 "Hg3 mi
9:00 PM79 °FThunderstorms. Broken clouds.9 mph74%29.86 "Hg4 mi
8:30 PM79 °FThunderstorms. Broken clouds.14 mph74%29.86 "Hg2 mi
7:30 PM84 °FBroken clouds.14 mph58%29.83 "HgN/A
6:30 PM86 °FPartly sunny.14 mph59%29.80 "HgN/A
5:30 PM88 °FScattered clouds.18 mph59%29.80 "HgN/A
4:30 PM91 °FPassing clouds.18 mph49%29.80 "HgN/A
3:30 PM91 °FPassing clouds.12 mph49%29.77 "HgN/A
2:30 PM93 °FPassing clouds.7 mph47%29.80 "HgN/A
1:30 PM90 °FPassing clouds.9 mph49%29.80 "HgN/A
12:30 PM91 °FPassing clouds.7 mph49%29.83 "HgN/A
11:30 AM88 °FPassing clouds.5 mph55%29.86 "HgN/A
10:30 AM86 °FPassing clouds.5 mph59%29.86 "HgN/A
9:30 AM82 °FPassing clouds.5 mph70%29.89 "HgN/A
8:30 AM81 °FPassing clouds.5 mph74%29.89 "HgN/A
7:30 AM77 °FSunny.No wind79%29.89 "Hg10 mi
6:30 AM70 °FClear.No wind94%29.86 "Hg10 mi
5:30 AM70 °FClear.No wind94%29.86 "Hg10 mi
4:30 AM72 °FClear.No wind88%29.86 "Hg10 mi
3:30 AM73 °FClear.No wind83%29.86 "Hg10 mi
2:30 AM73 °FClear.No wind89%29.86 "Hg10 mi
1:30 AM75 °FClear.No wind83%29.89 "Hg10 mi
12:30 AM75 °FPassing clouds.No wind83%29.89 "HgN/A
Weather by CustomWeather, © 2016

See weather overviewHow to use our weather pages